sat.trackr.live / text

‹ back to catalog

STARLINK-32885

NORAD 62958 · 2025-029L

PAYLOAD ACTIVE UNKNOWN

§ Identity

Operator
Country
US
Launch date
2025-02-11
Launch site
AFWTR
Launch vehicle
Mass (kg)
RCS (m²)

Purposes: comms

External: N2YO · Heavens-Above · Gunter

§ Orbital elements

Epoch: 2026-09-21T13:45:33.515712Z

Period
93.85 min
Inclination
53.1596°
Eccentricity
0.0001171
Mean motion
15.34383840 rev/d
Perigee alt
462.0 km
Apogee alt
463.6 km
Semi-major
6,840.9 km
B*
4.2667e-4
RAAN
36.5395°
Arg perigee
110.4798°
Mean anomaly
249.6331°
Rev number
9,139

§ Raw data

STARLINK-328851 62958U 25029L   26264.57330458  .00014059  00000+0  42667-3 0  99992 62958  53.1596  36.5395 0001171 110.4798 249.6331 15.34383840 91391

JSON: /api/v1/satellites/62958 · /tle

For live sub-satellite position, see the globe view (requires WebGL).

§ Visibility from observer

Set your observer location to see the next 7 days of passes ≥ 10°. The values pass through the URL so the page stays shareable.

No JS? Fill the form by hand. The geolocation button needs JavaScript.